Location: Del Amo
(33.8464°N, 118.2104°W)
Time: 08:04:03
(UTC+00:00)

Vanguard 1 Rocket - Pass Details

Date: 21 September 2024
Orbit: 650 x 4218 km, 34.3° (Epoch: 09 October)

Event Time Altitude Azimuth Distance (km) Brightness Sun altitude
Rises 17:25:25 0° 288° (WNW) 7,638 11.7 43.1°
Reaches altitude 10° 17:30:51 10° 281° (W) 6,949 11.6 43.9°
Maximum altitude 17:51:58 37° 224° (SW) 5,436 11.8 47.2°
Drops below altitude 10° 18:11:59 10° 165° (SSE) 6,500 12.5 49.9°
Sets 18:17:00 0° 157° (SSE) 7,107 12.6 50.5°
